Stockton, CA

6:56 AM PDT on April 27, 2017 (GMT -0700)
Stockton Metro

Weather History for KSCK - May, 2014

Change the Weather History Date:

Wednesday, May 7, 2014

  Actual Average Record
Temperature  
Mean Temperature 63 °F -  
Max Temperature 77 °F 79 °F 103 °F (1987)
Min Temperature 49 °F 50 °F 40 °F (2010)
Degree Days  
Heating Degree Days 2 3  
Month to date heating degree days 5 22  
Since 1 July heating degree days 2152 2598  
Cooling Degree Days 0 2  
Month to date cooling degree days 17 14  
Year to date cooling degree days 46 31  
Growing Degree Days 12 (Base 50)    
Moisture  
Dew Point 45 °F    
Average Humidity 56    
Maximum Humidity 80    
Minimum Humidity 31    
Precipitation  
Precipitation 0.00 in 0.01 in 0.45 in (1988)
Month to date precipitation T 0.15  
Year to date precipitation 5.79 8.57  
Since 1 July precipitation 7.50  
Snow  
Snow 0.00 in - - ()
Month to date snowfall 0.0  
Since 1 July snowfall 0.0  
Snow Depth -    
Sea Level Pressure  
Sea Level Pressure 29.91 in    
Wind  
Wind Speed 9 mph (West)    
Max Wind Speed 23 mph    
Max Gust Speed 30 mph    
Visibility 10 miles    
Events      
T = Trace of Precipitation, MM = Missing Value Source: NWS Daily Summary

Daily Weather History Graph

Daily Weather History Graph

Search for Another Location

Airport or City:

Trip Planner

Search our weather history database for the weather conditions in past years. The results will help you decide how hot, cold, wet, or windy it might be!

Date:

Astronomy

May. 07, 2014 Rise Set
Actual Time 6:02 AM PDT 8:01 PM PDT
Civil Twilight 5:33 AM PDT 8:30 PM PDT
Nautical Twilight 4:58 AM PDT 9:05 PM PDT
Astronomical Twilight 4:20 AM PDT 9:43 PM PDT
Moon 1:18 PM PDT (5/7) 1:57 AM PDT (5/7)
Length of Visible Light 14h 56m
Length of Day
13h 58m
First Quarter, 56% of the Moon is Illuminated
May 7
First Quarter
May 14
Full
May 21
Last Quarter
May 28
New
Jun 5
First Quarter

Hourly Weather History & Observations

Time (PDT) Temp. Dew Point Humidity Pressure Visibility Wind Dir Wind Speed Gust Speed Precip Events Conditions
12:55 AM 54.0 °F 46.0 °F 75% 29.85 in 10.0 mi WNW 6.9 mph - N/A   Clear
1:55 AM 54.0 °F 46.0 °F 75% 29.85 in 10.0 mi West 9.2 mph - N/A   Clear
2:55 AM 52.0 °F 45.0 °F 77% 29.85 in 10.0 mi West 4.6 mph - N/A   Clear
3:55 AM 52.0 °F 45.0 °F 77% 29.86 in 10.0 mi West 9.2 mph - N/A   Clear
4:55 AM 51.1 °F 45.0 °F 80% 29.86 in 10.0 mi West 8.1 mph - N/A   Clear
5:55 AM 50.0 °F 44.1 °F 80% 29.87 in 10.0 mi West 9.2 mph - N/A   Clear
6:55 AM 52.0 °F 45.0 °F 77% 29.89 in 10.0 mi WSW 9.2 mph - N/A   Clear
7:55 AM 55.9 °F 46.0 °F 69% 29.90 in 10.0 mi South 5.8 mph - N/A   Clear
8:55 AM 59.0 °F 46.0 °F 62% 29.91 in 10.0 mi SW 5.8 mph - N/A   Clear
9:55 AM 62.6 °F 44.6 °F 52% 29.93 in 10.0 mi SSW 8.1 mph - N/A   Clear
10:55 AM 66.0 °F 44.1 °F 45% 29.93 in 10.0 mi Variable 3.5 mph - N/A   Clear
11:55 AM 70.0 °F 44.1 °F 39% 29.93 in 10.0 mi West 6.9 mph 16.1 mph N/A   Clear
12:55 PM 72.0 °F 43.0 °F 35% 29.93 in 10.0 mi WSW 8.1 mph - N/A   Clear
1:55 PM 71.6 °F 44.6 °F 38% 29.92 in 10.0 mi WNW 4.6 mph - N/A   Clear
2:55 PM 73.9 °F 44.1 °F 34% 29.91 in 10.0 mi NNW 4.6 mph - N/A   Clear
3:55 PM 75.0 °F 42.1 °F 31% 29.89 in 10.0 mi West 6.9 mph - N/A   Clear
4:55 PM 75.9 °F 45.0 °F 33% 29.90 in 10.0 mi West 19.6 mph 28.8 mph N/A   Partly Cloudy
5:55 PM 70.0 °F 44.1 °F 39% 29.90 in 10.0 mi West 20.7 mph - N/A   Clear
6:55 PM 64.9 °F 42.1 °F 43% 29.91 in 10.0 mi West 19.6 mph 27.6 mph N/A   Clear
7:55 PM 60.1 °F 44.1 °F 55% 29.93 in 10.0 mi West 18.4 mph 28.8 mph N/A   Clear
8:55 PM 57.0 °F 45.0 °F 64% 29.94 in 10.0 mi West 17.3 mph 24.2 mph N/A   Clear
9:55 PM 55.9 °F 44.1 °F 64% 29.95 in 10.0 mi West 11.5 mph - N/A   Clear
10:55 PM 55.0 °F 45.0 °F 69% 29.96 in 10.0 mi West 5.8 mph - N/A   Clear
11:55 PM 54.0 °F 45.0 °F 72% 29.97 in 10.0 mi WNW 3.5 mph - N/A   Clear